period_start,C,m1,H,J0,J1,J2,J3,J4,J5,JA,JB,JC,JD,JJ,JK,JN,#
2015-04-26 00:04:52,0.05,1.26,0.00,23.36,27.05,29.69,4.73,26.40,1009.29,2033.86,2933.94,2955.85,3208.86,350.26,345.11,12.27,0000 0000 0000 0000 000000
2015-04-26 00:09:54,0.04,1.27,0.00,23.32,27.05,29.69,4.77,26.32,1009.29,2033.69,2933.01,2955.05,3208.07,350.17,344.87,12.29,0000 0000 0000 0000 000000
2015-04-26 00:14:55,0.06,1.27,0.00,23.15,27.05,29.78,4.72,26.38,1009.30,2033.47,2932.09,2954.40,3207.42,349.72,345.17,12.32,0000 0000 0000 0000 000000
2015-04-26 00:19:57,0.06,1.27,0.00,23.09,27.05,29.84,4.81,26.44,1009.30,2033.46,2931.19,2953.99,3206.97,350.37,345.48,12.35,0000 0000 0000 0000 000000
2015-04-26 00:24:58,0.08,1.27,0.00,23.04,27.05,29.88,4.78,26.36,1009.30,2033.40,2930.35,2953.25,3206.17,350.48,345.54,12.38,0000 0000 0000 0000 000000
2015-04-26 00:29:59,0.02,1.27,0.00,23.19,27.05,29.84,4.75,26.32,1009.29,2033.45,2929.81,2952.99,3205.93,350.33,345.28,12.41,0000 0000 0000 0000 000000
2015-04-26 00:35:00,0.10,1.28,0.00,23.50,27.05,29.83,4.66,26.36,1009.29,2033.51,2929.04,2952.51,3205.17,349.30,343.91,12.44,0000 0000 0000 0000 000000
2015-04-26 00:40:02,0.06,1.28,0.00,23.65,27.05,29.82,4.70,26.38,1009.29,2033.56,2928.28,2952.01,3204.99,349.75,344.19,12.47,0000 0000 0000 0000 000000
2015-04-26 00:45:03,0.06,1.28,0.00,23.66,27.06,29.83,4.81,26.44,1009.29,2033.82,2927.99,2951.87,3204.50,350.46,344.72,12.50,0000 0000 0000 0000 000000
2015-04-26 00:50:04,0.06,1.28,0.00,23.60,27.07,29.84,4.72,26.31,1009.29,2033.78,2927.25,2951.12,3204.00,350.35,344.88,12.53,0000 0000 0000 0000 000000
2015-04-26 00:55:05,0.03,1.28,0.00,23.56,27.07,29.89,4.77,26.33,1009.29,2033.48,2926.47,2950.84,3203.37,349.99,344.25,12.56,0000 0000 0000 0000 000000
2015-04-26 01:00:07,0.04,1.28,0.00,23.41,27.07,29.94,4.76,26.38,1009.29,2033.54,2925.79,2950.10,3202.99,350.63,345.36,12.59,0000 0000 0000 0000 000000
2015-04-26 01:05:08,0.04,1.28,0.00,23.33,27.09,29.96,4.76,26.38,1009.29,2033.32,2924.96,2949.79,3202.33,350.45,345.23,12.62,0000 0000 0000 0000 000000
2015-04-26 01:10:09,0.03,1.29,0.00,23.29,27.09,29.99,4.73,26.30,1009.29,2033.13,2924.11,2949.04,3201.90,350.45,345.31,12.65,0000 0000 0000 0000 000000
2015-04-26 01:15:10,0.07,1.29,0.00,23.25,27.08,29.98,4.78,26.41,1009.29,2033.11,2923.44,2948.80,3201.15,349.94,344.84,12.68,0000 0000 0000 0000 000000
2015-04-26 01:20:12,0.05,1.29,0.00,23.22,27.08,29.97,4.71,26.19,1009.29,2033.12,2922.84,2948.07,3200.92,349.93,344.85,12.70,0000 0000 0000 0000 000000
2015-04-26 01:25:13,0.04,1.29,0.00,23.51,27.08,29.95,4.71,26.23,1009.29,2033.15,2922.06,2947.93,3200.12,349.57,344.38,12.73,0000 0000 0000 0000 000000
2015-04-26 01:30:14,0.08,1.29,0.00,23.76,27.09,29.92,4.70,26.14,1009.29,2033.14,2921.52,2947.16,3199.91,350.08,344.60,12.76,0000 0000 0000 0000 000000
2015-04-26 01:35:16,0.03,1.29,0.00,23.79,27.10,29.91,4.67,26.32,1009.29,2033.12,2920.78,2946.91,3199.12,349.73,344.05,12.79,0000 0000 0000 0000 000000
2015-04-26 01:40:17,0.08,1.30,0.00,23.62,27.10,29.99,4.74,26.42,1009.29,2033.12,2920.00,2946.08,3198.84,349.87,344.29,12.82,0000 0000 0000 0000 000000
2015-04-26 01:45:19,0.04,1.30,0.00,23.52,27.10,30.00,4.75,26.24,1009.27,2033.10,2919.18,2945.84,3198.08,349.86,344.31,12.85,0000 0000 0000 0000 000000
2015-04-26 01:50:20,0.08,1.30,0.00,23.49,27.10,29.99,4.78,26.25,1009.28,2033.04,2918.14,2945.03,3197.39,350.52,344.94,12.88,0000 0000 0000 0000 000000
2015-04-26 01:55:22,0.13,1.30,0.00,23.44,27.10,30.01,4.77,26.28,1009.29,2033.03,2916.68,2944.17,3196.35,350.16,344.88,12.91,0000 0000 0000 0000 000000
2015-04-26 02:00:23,0.10,1.31,0.00,23.40,27.10,30.02,4.81,26.43,1009.29,2033.03,2915.57,2943.45,3195.57,350.45,345.10,12.94,0000 0000 0000 0000 000000
2015-04-26 02:05:25,0.03,1.31,0.00,23.38,27.10,30.02,4.81,26.24,1009.29,2033.02,2914.71,2942.94,3194.98,350.44,345.09,12.97,0000 0000 0000 0000 000000
2015-04-26 02:10:26,0.08,1.31,0.00,23.34,27.10,30.02,4.76,26.33,1009.29,2033.01,2913.97,2942.14,3194.24,349.74,344.54,13.00,0000 0000 0000 0000 000000
2015-04-26 02:15:27,0.03,1.31,0.00,23.32,27.10,30.01,4.72,26.27,1009.29,2033.02,2913.15,2941.98,3193.96,350.11,344.97,13.03,0000 0000 0000 0000 000000
2015-04-26 02:20:29,0.08,1.31,0.00,23.46,27.10,29.99,4.80,26.24,1009.29,2033.02,2912.67,2941.38,3193.32,350.57,345.06,13.06,0000 0000 0000 0000 000000
2015-04-26 02:25:30,0.02,1.32,0.00,23.75,27.11,29.98,4.78,26.27,1009.29,2033.03,2912.00,2941.01,3192.98,350.52,344.63,13.09,0000 0000 0000 0000 000000
2015-04-26 02:30:32,0.09,1.32,0.00,23.83,27.12,29.99,4.73,26.33,1009.29,2033.01,2911.26,2940.45,3192.28,349.84,344.19,13.12,0000 0000 0000 0000 000000
2015-04-26 02:35:33,0.04,1.32,0.00,23.66,27.12,30.02,4.67,26.31,1009.29,2033.01,2910.53,2940.00,3191.90,349.71,344.19,13.14,0000 0000 0000 0000 000000
2015-04-26 02:40:34,0.07,1.32,0.00,23.62,27.12,30.00,4.72,26.32,1009.29,2033.01,2909.88,2939.51,3191.11,349.76,344.35,13.17,0000 0000 0000 0000 000000
2015-04-26 02:45:36,0.04,1.32,0.00,23.61,27.13,29.99,4.73,26.37,1009.29,2033.00,2909.04,2939.01,3190.83,350.50,344.72,13.20,0000 0000 0000 0000 000000
2015-04-26 02:50:37,0.09,1.33,0.00,23.56,27.14,30.00,4.78,26.31,1009.29,2033.00,2908.19,2938.48,3190.06,350.03,344.74,13.23,0000 0000 0000 0000 000000
2015-04-26 02:55:38,0.04,1.33,0.00,23.53,27.15,30.01,4.76,26.39,1009.29,2033.00,2907.55,2938.01,3189.78,349.80,344.30,13.26,0000 0000 0000 0000 000000
2015-04-26 03:00:39,0.06,1.33,0.00,23.52,27.15,30.02,4.71,26.36,1009.30,2033.00,2906.89,2937.65,3189.09,349.88,344.47,13.29,0000 0000 0000 0000 000000
2015-04-26 03:05:41,0.05,1.33,0.00,23.50,27.15,30.04,4.72,26.33,1009.31,2033.01,2906.11,2937.03,3188.81,349.95,344.49,13.32,0000 0000 0000 0000 000000
2015-04-26 03:10:42,0.06,1.33,0.00,23.49,27.15,30.04,4.76,26.33,1009.31,2033.00,2905.39,2936.81,3188.06,350.52,345.11,13.35,0000 0000 0000 0000 000000
2015-04-26 03:15:43,0.05,1.34,0.00,23.50,27.15,30.04,4.77,26.26,1009.31,2033.00,2904.78,2936.08,3187.84,350.08,344.87,13.38,0000 0000 0000 0000 000000
2015-04-26 03:20:44,0.05,1.34,0.00,23.50,27.15,30.04,4.73,26.26,1009.31,2033.00,2904.02,2935.83,3187.08,349.84,344.31,13.41,0000 0000 0000 0000 000000
2015-04-26 03:25:46,0.07,1.34,0.00,23.49,27.15,30.05,4.71,26.26,1009.29,2033.01,2903.25,2935.13,3186.85,350.19,344.64,13.44,0000 0000 0000 0000 000000
2015-04-26 03:30:47,0.06,1.34,0.00,23.50,27.15,30.04,4.87,26.38,1009.31,2033.00,2902.48,2934.83,3186.08,350.74,345.39,13.47,0000 0000 0000 0000 000000
2015-04-26 03:35:48,0.08,1.34,0.00,23.50,27.15,30.04,4.80,26.42,1009.31,2033.00,2901.69,2934.06,3185.63,350.54,345.22,13.50,0000 0000 0000 0000 000000
2015-04-26 03:40:50,0.03,1.34,0.00,23.51,27.15,30.03,4.73,26.36,1009.32,2033.00,2900.99,2933.82,3185.02,349.64,344.37,13.53,0000 0000 0000 0000 000000
2015-04-26 03:45:51,0.09,1.35,0.00,23.55,27.15,30.03,4.71,26.24,1009.30,2033.00,2900.18,2933.07,3184.50,349.91,344.40,13.55,0000 0000 0000 0000 000000
2015-04-26 03:50:52,0.06,1.35,0.00,23.55,27.15,30.03,4.74,26.27,1009.30,2033.00,2899.39,2932.70,3183.99,350.00,344.52,13.58,0000 0000 0000 0000 000000
2015-04-26 03:55:54,0.06,1.35,0.00,23.56,27.15,30.00,4.75,26.19,1009.30,2033.01,2898.73,2932.04,3183.34,350.22,344.98,13.61,0000 0000 0000 0000 000000
2015-04-26 04:00:55,0.05,1.35,0.00,23.60,27.15,29.99,4.82,26.32,1009.29,2033.01,2897.93,2931.76,3182.87,350.12,344.56,13.64,0000 0000 0000 0000 000000
2015-04-26 04:05:56,0.07,1.36,0.00,23.60,27.15,29.99,4.76,26.38,1009.29,2033.00,2897.07,2931.04,3182.08,350.92,345.52,13.67,0000 0000 0000 0000 000000
2015-04-26 04:10:58,0.05,1.36,0.00,23.60,27.15,29.98,4.68,26.39,1009.30,2033.01,2896.34,2930.77,3181.86,350.06,344.51,13.70,0000 0000 0000 0000 000000
2015-04-26 04:15:59,0.07,1.36,0.00,23.63,27.15,29.98,4.83,26.33,1009.31,2033.01,2895.71,2930.04,3181.16,350.22,344.92,13.73,0000 0000 0000 0000 000000
2015-04-26 04:21:00,0.05,1.36,0.00,23.63,27.15,29.97,4.69,26.32,1009.31,2033.00,2894.91,2929.73,3180.71,349.13,343.52,13.76,0000 0000 0000 0000 000000
2015-04-26 04:26:01,0.06,1.36,0.00,23.62,27.15,29.99,4.72,26.33,1009.30,2033.00,2894.04,2929.03,3180.02,350.45,344.91,13.79,0000 0000 0000 0000 000000
2015-04-26 04:31:03,0.09,1.36,0.00,23.63,27.16,29.99,4.72,26.34,1009.31,2033.00,2893.19,2928.48,3179.42,349.54,344.18,13.82,0000 0000 0000 0000 000000
2015-04-26 04:36:04,0.04,1.37,0.00,23.64,27.16,30.00,4.77,26.37,1009.31,2033.00,2892.34,2928.00,3178.89,350.18,344.67,13.85,0000 0000 0000 0000 000000
2015-04-26 04:41:05,0.09,1.37,0.00,23.63,27.17,29.96,4.68,26.48,1009.37,2033.00,2891.59,2927.38,3178.08,349.57,344.04,13.88,0000 0000 0000 0000 000000
2015-04-26 04:46:06,0.04,1.37,0.00,23.66,27.17,30.00,4.79,26.41,1009.38,2033.00,2890.79,2926.97,3177.75,350.13,344.61,13.91,0000 0000 0000 0000 000000
2015-04-26 04:51:08,0.08,1.37,0.00,23.68,27.17,29.99,4.71,26.47,1009.43,2033.00,2889.96,2926.19,3177.03,349.70,344.16,13.94,0000 0000 0000 0000 000000
2015-04-26 04:56:09,0.07,1.38,0.00,23.67,27.17,29.96,4.72,26.30,1009.38,2033.00,2889.09,2925.87,3176.41,349.99,344.47,13.96,0000 0000 0000 0000 000000
2015-04-26 05:01:10,0.07,1.38,0.00,23.67,27.17,29.95,4.78,26.31,1009.35,2033.00,2888.26,2925.11,3175.99,350.74,345.31,13.99,0000 0000 0000 0000 000000
2015-04-26 05:06:12,0.06,1.38,0.00,23.67,27.17,29.93,4.71,26.33,1009.36,2033.01,2887.64,2924.87,3175.38,349.84,344.27,14.02,0000 0000 0000 0000 000000
2015-04-26 05:11:13,0.06,1.38,0.00,23.67,27.17,29.98,4.75,26.32,1009.50,2033.00,2886.88,2924.09,3174.95,350.12,344.45,14.05,0000 0000 0000 0000 000000
2015-04-26 05:16:14,0.06,1.38,0.00,23.67,27.17,29.95,4.70,26.19,1009.43,2033.02,2886.04,2923.85,3174.14,350.04,344.50,14.08,0000 0000 0000 0000 000000
2015-04-26 05:21:16,0.08,1.39,0.00,23.70,27.17,29.99,4.70,26.29,1009.40,2033.00,2885.24,2923.10,3173.66,349.67,344.10,14.11,0000 0000 0000 0000 000000
2015-04-26 05:26:17,0.06,1.39,0.00,23.70,27.18,29.96,4.82,26.30,1009.53,2033.00,2884.46,2922.72,3173.02,350.99,345.34,14.14,0000 0000 0000 0000 000000
2015-04-26 05:31:18,0.06,1.39,0.00,23.69,27.19,29.98,4.71,26.41,1009.52,2033.00,2883.79,2922.04,3172.58,349.81,344.25,14.17,0000 0000 0000 0000 000000
2015-04-26 05:36:19,0.05,1.39,0.00,23.71,27.20,29.95,4.73,26.46,1009.41,2033.01,2882.96,2921.78,3171.99,350.35,344.73,14.20,0000 0000 0000 0000 000000
2015-04-26 05:41:20,0.08,1.39,0.00,23.72,27.20,29.93,4.71,26.30,1009.38,2033.00,2882.09,2921.03,3171.30,349.81,344.06,14.23,0000 0000 0000 0000 000000
2015-04-26 05:46:22,0.06,1.39,0.00,23.72,27.20,30.00,4.73,26.32,1009.41,2033.01,2881.50,2920.74,3170.94,349.49,343.89,14.26,0000 0000 0000 0000 000000
2015-04-26 05:51:23,0.07,1.40,0.00,23.72,27.20,29.93,4.80,26.42,1009.53,2033.01,2880.71,2920.03,3170.11,350.28,344.71,14.29,0000 0000 0000 0000 000000
2015-04-26 05:56:24,0.06,1.40,0.00,23.72,27.20,29.93,4.67,26.24,1009.65,2033.01,2879.90,2919.66,3169.74,349.76,344.07,14.32,0000 0000 0000 0000 000000
2015-04-26 06:01:25,0.05,1.40,0.00,23.72,27.20,29.96,4.66,26.25,1009.76,2033.00,2879.10,2919.02,3169.03,350.36,344.78,14.35,0000 0000 0000 0000 000000
2015-04-26 06:06:27,0.07,1.40,0.00,23.73,27.20,29.95,4.79,26.24,1009.78,2033.02,2878.55,2918.61,3168.69,350.97,345.45,14.37,0000 0000 0000 0000 000000
2015-04-26 06:11:28,0.04,1.41,0.00,23.75,27.20,29.93,4.74,26.48,1009.78,2033.00,2877.90,2918.02,3168.03,350.25,344.71,14.40,0000 0000 0000 0000 000000
2015-04-26 06:16:29,0.08,1.41,0.00,23.75,27.20,29.96,4.72,26.26,1009.78,2033.00,2877.06,2917.63,3167.58,350.16,344.63,14.43,0000 0000 0000 0000 000000
2015-04-26 06:21:31,0.05,1.41,0.00,23.74,27.21,29.96,4.75,26.40,1009.78,2033.00,2876.22,2917.01,3166.92,350.38,344.85,14.46,0000 0000 0000 0000 000000
2015-04-26 06:26:32,0.10,1.41,0.00,23.76,27.22,29.95,4.71,26.23,1009.78,2033.00,2875.46,2916.47,3166.15,350.21,344.50,14.49,0000 0000 0000 0000 000000
2015-04-26 06:31:33,0.04,1.41,0.00,23.75,27.22,29.95,4.78,26.42,1009.78,2033.00,2874.73,2915.99,3165.79,350.47,344.87,14.52,0000 0000 0000 0000 000000
2015-04-26 06:36:35,0.08,1.42,0.00,23.74,27.22,29.92,4.78,26.39,1009.78,2033.00,2873.86,2915.40,3165.06,349.92,344.38,14.55,0000 0000 0000 0000 000000
2015-04-26 06:41:36,0.04,1.42,0.00,23.77,27.22,29.94,4.72,26.40,1009.79,2033.00,2873.06,2915.00,3164.65,350.29,344.79,14.58,0000 0000 0000 0000 000000
2015-04-26 06:46:38,0.09,1.42,0.00,23.77,27.22,29.93,4.71,26.29,1009.79,2033.00,2872.36,2914.31,3164.02,349.90,344.38,14.61,0000 0000 0000 0000 000000
2015-04-26 06:51:39,0.05,1.42,0.00,23.77,27.22,29.90,4.73,26.36,1009.80,2033.00,2871.60,2913.96,3163.45,350.21,344.79,14.64,0000 0000 0000 0000 000000
2015-04-26 06:56:40,0.06,1.42,0.00,23.80,27.22,29.96,4.72,26.32,1009.80,2033.00,2870.90,2913.30,3162.98,350.43,345.05,14.67,0000 0000 0000 0000 000000
2015-04-26 07:01:42,0.06,1.43,0.00,23.80,27.22,29.92,4.69,26.38,1009.78,2033.00,2870.06,2912.94,3162.27,349.78,344.24,14.70,0000 0000 0000 0000 000000
2015-04-26 07:06:43,0.08,1.43,0.00,23.80,27.23,29.92,4.74,26.36,1009.79,2033.00,2869.22,2912.14,3161.86,350.34,344.76,14.73,0000 0000 0000 0000 000000
2015-04-26 07:11:44,0.04,1.43,0.00,23.83,27.24,29.92,4.77,26.36,1009.79,2033.00,2868.61,2911.96,3161.10,350.63,345.21,14.76,0000 0000 0000 0000 000000
2015-04-26 07:16:45,0.09,1.43,0.00,23.83,27.25,29.93,4.68,26.36,1009.79,2033.00,2867.76,2911.23,3160.69,350.03,344.27,14.78,0000 0000 0000 0000 000000
2015-04-26 07:21:47,0.04,1.43,0.00,23.82,27.25,29.89,4.68,26.32,1009.82,2033.00,2866.97,2910.86,3160.02,349.79,344.32,14.81,0000 0000 0000 0000 000000
2015-04-26 07:26:48,0.10,1.44,0.00,23.85,27.25,29.92,4.79,26.35,1009.80,2033.00,2866.12,2910.06,3159.40,350.51,344.81,14.84,0000 0000 0000 0000 000000
2015-04-26 07:31:49,0.07,1.44,0.00,23.87,27.25,29.94,4.75,26.37,1009.81,2033.00,2865.33,2909.65,3158.93,349.58,343.90,14.87,0000 0000 0000 0000 000000
2015-04-26 07:36:50,0.07,1.44,0.00,23.87,27.25,29.91,4.73,26.39,1009.83,2033.00,2864.54,2909.03,3158.15,350.16,344.39,14.90,0000 0000 0000 0000 000000
2015-04-26 07:41:52,0.06,1.44,0.00,23.90,27.25,29.90,4.74,26.32,1009.85,2033.00,2863.86,2908.59,3157.81,349.69,344.02,14.93,0000 0000 0000 0000 000000
2015-04-26 07:46:53,0.06,1.44,0.00,23.94,27.25,29.87,4.74,26.27,1009.86,2033.00,2862.96,2908.01,3157.04,350.41,344.58,14.96,0000 0000 0000 0000 000000
2015-04-26 07:51:54,0.10,1.45,0.00,23.95,27.26,29.87,4.67,26.30,1009.95,2033.00,2862.07,2907.33,3156.42,349.75,344.14,14.99,0000 0000 0000 0000 000000
2015-04-26 07:56:55,0.05,1.45,0.00,23.96,27.27,29.85,4.71,26.39,1010.00,2033.00,2861.23,2906.93,3155.86,350.05,344.29,15.02,0000 0000 0000 0000 000000
2015-04-26 08:01:56,0.09,1.45,0.00,23.97,27.27,29.85,4.69,26.35,1009.93,2033.00,2860.36,2906.17,3155.07,349.55,343.79,15.05,0000 0000 0000 0000 000000
2015-04-26 08:06:57,0.07,1.45,0.00,23.98,27.27,29.85,4.75,26.32,1010.09,2033.00,2859.56,2905.73,3154.56,350.53,344.81,15.08,0000 0000 0000 0000 000000
2015-04-26 08:11:59,0.06,1.46,0.00,23.97,27.27,29.86,4.76,26.32,1010.20,2033.00,2858.72,2905.03,3153.97,350.11,344.53,15.11,0000 0000 0000 0000 000000
2015-04-26 08:17:00,0.09,1.46,0.00,23.97,27.27,29.87,4.69,26.27,1010.25,2033.00,2857.82,2904.45,3153.14,349.90,344.09,15.14,0000 0000 0000 0000 000000
2015-04-26 08:22:01,0.05,1.46,0.00,24.00,27.29,29.87,4.73,26.32,1010.26,2033.00,2856.96,2903.97,3152.62,349.81,344.02,15.17,0000 0000 0000 0000 000000
2015-04-26 08:27:02,0.08,1.46,0.00,24.00,27.30,29.89,4.68,26.26,1010.27,2033.00,2856.09,2903.17,3151.99,349.88,344.21,15.19,0000 0000 0000 0000 000000
2015-04-26 08:32:04,0.08,1.46,0.00,23.99,27.30,29.89,4.72,26.37,1010.27,2033.00,2855.21,2902.75,3151.20,350.17,344.43,15.22,0000 0000 0000 0000 000000
2015-04-26 08:37:05,0.08,1.47,0.00,23.99,27.30,29.90,4.73,26.40,1010.27,2033.00,2854.36,2902.03,3150.65,350.12,344.11,15.25,0000 0000 0000 0000 000000
2015-04-26 08:42:06,0.06,1.47,0.00,23.97,27.30,29.91,4.74,26.32,1010.27,2032.99,2853.62,2901.62,3150.01,350.21,344.59,15.28,0000 0000 0000 0000 000000
2015-04-26 08:47:07,0.07,1.47,0.00,23.96,27.31,29.94,4.73,26.33,1010.27,2032.99,2852.77,2901.02,3149.42,350.05,344.44,15.31,0000 0000 0000 0000 000000
2015-04-26 08:52:09,0.07,1.47,0.00,23.97,27.32,29.95,4.72,26.41,1010.27,2032.99,2851.94,2900.44,3148.88,349.77,344.34,15.34,0000 0000 0000 0000 000000
2015-04-26 08:57:10,0.06,1.48,0.00,23.97,27.32,29.94,4.75,26.13,1010.27,2032.99,2851.09,2900.00,3148.08,350.32,344.63,15.37,0000 0000 0000 0000 000000
2015-04-26 09:02:11,0.10,1.48,0.00,23.93,27.32,29.96,4.69,26.28,1010.27,2032.99,2850.27,2899.28,3147.54,349.33,343.77,15.40,0000 0000 0000 0000 000000
2015-04-26 09:07:12,0.07,1.48,0.00,23.92,27.32,29.98,4.78,26.29,1010.27,2032.99,2849.39,2898.73,3146.87,350.67,345.09,15.43,0000 0000 0000 0000 000000
2015-04-26 09:12:14,0.07,1.48,0.00,23.92,27.32,29.98,4.73,26.22,1010.27,2032.99,2848.53,2898.03,3146.07,350.24,344.76,15.46,0000 0000 0000 0000 000000
2015-04-26 09:17:15,0.07,1.48,0.00,23.90,27.32,29.98,4.76,26.22,1010.27,2032.97,2847.78,2897.60,3145.66,350.52,344.98,15.49,0000 0000 0000 0000 000000
2015-04-26 09:22:16,0.05,1.49,0.00,23.87,27.32,30.01,4.67,26.18,1010.27,2032.98,2846.96,2897.02,3145.00,349.44,343.72,15.52,0000 0000 0000 0000 000000
2015-04-26 09:27:17,0.10,1.49,0.00,23.87,27.32,30.01,4.74,26.28,1010.27,2032.97,2846.06,2896.26,3144.22,349.70,344.30,15.55,0000 0000 0000 0000 000000
2015-04-26 09:32:18,0.04,1.49,0.00,23.86,27.33,30.05,4.71,26.21,1010.27,2032.99,2845.24,2896.00,3143.91,349.98,344.45,15.58,0000 0000 0000 0000 000000
2015-04-26 09:37:20,0.10,1.49,0.00,23.83,27.33,30.05,4.75,26.32,1010.27,2032.98,2844.42,2895.33,3143.08,349.82,344.33,15.60,0000 0000 0000 0000 000000
2015-04-26 09:42:21,0.04,1.50,0.00,23.82,27.32,30.04,4.77,26.21,1010.27,2032.96,2843.78,2894.92,3142.57,350.22,344.78,15.63,0000 0000 0000 0000 000000
2015-04-26 09:47:22,0.07,1.50,0.00,23.81,27.33,30.05,4.76,26.26,1010.27,2032.96,2842.98,2894.14,3142.01,350.30,344.76,15.66,0000 0000 0000 0000 000000
2015-04-26 09:52:23,0.06,1.50,0.00,23.79,27.32,30.11,4.76,26.30,1010.28,2032.97,2842.17,2893.96,3141.52,350.22,344.64,15.69,0000 0000 0000 0000 000000
2015-04-26 09:57:25,0.08,1.50,0.00,23.77,27.32,30.11,4.75,26.16,1010.30,2032.98,2841.47,2893.21,3141.00,350.44,345.26,15.72,0000 0000 0000 0000 000000
2015-04-26 10:02:26,0.05,1.50,0.00,23.76,27.32,30.11,4.72,26.18,1010.31,2032.98,2840.76,2892.96,3140.33,350.27,344.92,15.75,0000 0000 0000 0000 000000
2015-04-26 10:07:28,0.07,1.51,0.00,23.74,27.32,30.15,4.71,26.25,1010.33,2032.98,2839.98,2892.24,3139.93,349.77,344.59,15.78,0000 0000 0000 0000 000000
2015-04-26 10:12:29,0.05,1.51,0.00,23.72,27.32,30.14,4.77,26.24,1010.28,2032.98,2839.15,2891.95,3139.14,350.24,345.00,15.81,0000 0000 0000 0000 000000
2015-04-26 10:17:30,0.09,1.51,0.00,23.72,27.32,30.13,4.78,26.35,1010.42,2032.98,2838.41,2891.19,3138.77,350.59,345.29,15.84,0000 0000 0000 0000 000000
2015-04-26 10:22:31,0.02,1.51,0.00,23.68,27.32,30.14,4.79,26.27,1010.66,2032.96,2837.81,2890.98,3138.04,350.53,345.35,15.87,0000 0000 0000 0000 000000
2015-04-26 10:27:32,0.08,1.51,0.00,23.67,27.32,30.15,4.75,26.30,1010.62,2032.95,2837.04,2890.25,3137.77,350.09,344.95,15.90,0000 0000 0000 0000 000000
2015-04-26 10:32:33,0.05,1.52,0.00,23.65,27.31,30.16,4.76,26.26,1010.60,2032.98,2836.26,2889.99,3137.05,350.11,344.86,15.93,0000 0000 0000 0000 000000
2015-04-26 10:37:35,0.09,1.52,0.00,23.63,27.30,30.16,4.74,26.24,1010.54,2032.95,2835.45,2889.31,3136.56,350.28,344.88,15.96,0000 0000 0000 0000 000000
2015-04-26 10:42:36,0.02,1.52,0.00,23.62,27.30,30.17,4.78,26.24,1010.45,2032.97,2834.96,2889.00,3136.01,349.86,344.59,15.99,0000 0000 0000 0000 000000
2015-04-26 10:47:37,0.07,1.52,0.00,23.63,27.30,30.17,4.74,26.26,1010.51,2032.99,2834.14,2888.64,3135.73,350.28,345.18,16.01,0000 0000 0000 0000 000000
2015-04-26 10:52:38,0.06,1.52,0.00,23.62,27.30,30.15,4.79,26.39,1010.56,2032.97,2833.48,2888.02,3135.04,350.21,345.06,16.04,0000 0000 0000 0000 000000
2015-04-26 10:57:39,0.03,1.52,0.00,23.62,27.29,30.15,4.77,26.41,1010.63,2032.98,2832.84,2887.79,3134.92,350.14,345.03,16.07,0000 0000 0000 0000 000000
2015-04-26 11:02:41,0.09,1.53,0.00,23.62,27.27,30.15,4.75,26.32,1010.48,2032.99,2832.06,2887.06,3134.12,350.51,345.48,16.10,0000 0000 0000 0000 000000
2015-04-26 11:07:42,0.04,1.53,0.00,23.62,27.27,30.12,4.77,26.26,1010.50,2032.99,2831.26,2886.93,3133.96,350.37,345.22,16.13,0000 0000 0000 0000 000000
2015-04-26 11:12:43,0.09,1.53,0.00,23.59,27.27,30.14,4.72,26.35,1010.58,2032.99,2830.74,2886.17,3133.22,349.84,344.80,16.16,0000 0000 0000 0000 000000
2015-04-26 11:17:45,0.02,1.53,0.00,23.57,27.27,30.14,4.75,26.21,1010.56,2032.99,2829.99,2885.98,3132.92,349.92,344.82,16.19,0000 0000 0000 0000 000000
2015-04-26 11:22:46,0.10,1.53,0.00,23.57,27.26,30.13,4.68,26.21,1010.59,2032.99,2829.18,2885.29,3132.15,349.49,344.50,16.22,0000 0000 0000 0000 000000
2015-04-26 11:27:47,0.04,1.54,0.00,23.55,27.25,30.14,4.78,26.27,1010.51,2032.99,2828.47,2884.98,3131.88,349.77,344.65,16.25,0000 0000 0000 0000 000000
2015-04-26 11:32:48,0.08,1.54,0.00,23.54,27.25,30.14,4.79,26.31,1010.47,2032.99,2827.83,2884.27,3131.08,349.67,344.75,16.28,0000 0000 0000 0000 000000
2015-04-26 11:37:49,0.05,1.54,0.00,23.55,27.25,30.13,4.80,26.37,1010.49,2032.99,2826.94,2883.93,3130.62,349.88,345.00,16.31,0000 0000 0000 0000 000000
2015-04-26 11:42:51,0.08,1.54,0.00,23.52,27.25,30.14,4.74,26.26,1010.34,2032.99,2826.11,2883.24,3130.02,349.90,345.02,16.34,0000 0000 0000 0000 000000
2015-04-26 11:47:52,0.05,1.54,0.00,23.50,27.24,30.13,4.78,26.38,1010.30,2032.99,2825.51,2882.99,3129.63,349.93,344.90,16.37,0000 0000 0000 0000 000000
2015-04-26 11:52:53,0.07,1.55,0.00,23.50,27.22,30.12,4.77,26.38,1010.30,2032.99,2824.74,2882.36,3129.01,350.24,345.05,16.40,0000 0000 0000 0000 000000
2015-04-26 11:57:54,0.04,1.55,0.00,23.47,27.22,30.13,4.75,26.25,1010.29,2032.99,2824.00,2882.00,3128.57,350.39,345.36,16.42,0000 0000 0000 0000 000000
2015-04-26 12:02:56,0.08,1.55,0.00,23.44,27.22,30.13,4.78,26.23,1010.33,2032.99,2823.16,2881.37,3128.00,350.24,345.07,16.45,0000 0000 0000 0000 000000
2015-04-26 12:07:56,0.06,1.55,0.00,23.43,27.22,30.12,4.76,26.28,1010.30,2032.99,2822.44,2881.00,3127.35,350.34,345.36,16.48,0000 0000 0000 0000 000000
2015-04-26 12:12:58,0.07,1.55,0.00,23.42,27.21,30.11,4.73,26.23,1010.29,2032.99,2821.71,2880.36,3126.90,350.07,345.16,16.51,0000 0000 0000 0000 000000
2015-04-26 12:17:59,0.04,1.56,0.00,23.41,27.20,30.12,4.71,26.29,1010.29,2032.99,2821.01,2880.00,3126.10,349.72,344.77,16.54,0000 0000 0000 0000 000000
2015-04-26 12:23:00,0.08,1.56,0.00,23.40,27.20,30.11,4.69,26.36,1010.33,2032.99,2820.19,2879.44,3125.82,349.73,344.82,16.57,0000 0000 0000 0000 000000
2015-04-26 12:28:01,0.05,1.56,0.00,23.38,27.20,30.11,4.80,26.29,1010.32,2032.99,2819.57,2879.01,3125.07,349.58,344.68,16.60,0000 0000 0000 0000 000000
2015-04-26 12:33:03,0.05,1.56,0.00,23.35,27.19,30.11,4.66,26.28,1010.33,2032.99,2818.84,2878.83,3124.71,349.49,344.57,16.63,0000 0000 0000 0000 000000
2015-04-26 12:38:04,0.08,1.56,0.00,23.34,27.17,30.11,4.76,26.33,1010.30,2032.99,2817.96,2878.06,3124.02,350.23,345.12,16.66,0000 0000 0000 0000 000000
2015-04-26 12:43:05,0.06,1.56,0.00,23.31,27.17,30.11,4.79,26.32,1010.30,2033.00,2817.17,2877.82,3123.63,350.38,345.71,16.69,0000 0000 0000 0000 000000
2015-04-26 12:48:07,0.07,1.57,0.00,23.32,27.17,30.09,4.78,26.24,1010.31,2033.00,2816.49,2877.07,3123.01,350.09,345.28,16.72,0000 0000 0000 0000 000000
2015-04-26 12:53:08,0.05,1.57,0.00,23.29,27.15,30.09,4.80,26.32,1010.30,2033.00,2815.87,2876.85,3122.39,350.31,345.57,16.75,0000 0000 0000 0000 000000
2015-04-26 12:58:09,0.07,1.57,0.00,23.26,27.15,30.09,4.75,26.34,1010.30,2033.01,2815.04,2876.08,3121.96,349.49,344.90,16.78,0000 0000 0000 0000 000000
2015-04-26 13:03:10,0.07,1.57,0.00,23.25,27.15,30.09,4.77,26.28,1010.29,2033.01,2814.24,2875.86,3121.22,349.97,345.10,16.81,0000 0000 0000 0000 000000